Location: Mountain View
(37.3861°N, 122.0839°W)
Time: 09:37:23
(UTC-07:00)

Tiangong 2 - Visible Passes

Search period start: 23 October 2018 00:00
Search period end: 02 November 2018 00:00
Orbit: 384 x 392 km, 42.8° (Epoch: 23 October)

Date Brightness Start Highest point End Pass type
(mag) Time Alt. Az. Time Alt. Az. Time Alt. Az.
26 Oct 2.6 19:49:03 10° SSW 19:51:02 26° S 19:51:02 26° S visible
27 Oct 3.1 18:51:31 10° S 18:53:37 17° SE 18:55:40 10° ESE visible
27 Oct 3.8 20:26:59 10° WSW 20:27:58 18° WSW 20:27:58 18° WSW visible
28 Oct 1.2 19:28:38 10° SW 19:31:46 59° SSE 19:32:30 44° E visible
29 Oct 2.7 20:07:06 10° W 20:09:14 34° WNW 20:09:14 34° WNW visible
30 Oct 1.1 19:08:33 10° WSW 19:11:43 75° NNW 19:13:36 22° ENE visible
31 Oct 2.2 19:47:17 10° W 19:50:12 35° NNW 19:50:12 35° NNW visible
01 Nov 1.7 18:48:37 10° W 18:51:43 46° NNW 18:54:28 12° ENE visible
01 Nov 4.2 20:26:06 10° WNW 20:26:45 14° NW 20:26:45 14° NW visible
